Theta_e
301 303 304 303 303 303 303 303 303 303 301 300 302 301 302 301 301 301 301 301 301 301 305 309 310 311 317 321 331 331 330 329 331 331 330 328 326 322 327 327 329 329 327 324
303 303 303 303 303 303 303 304 305 303 302 300 301 301 301 301 301 300 300 301 302 302 304 315 316 313 319 321 329 331 328 327 328 331 330 330 326 324 326 328 329 329 327 322
304 304 303 304 304 305 304 304 304 304 303 301 300 302 301 301 300 300 300 299 299 300 303 310 318 319 321 322 324 331 330 326 328 330 330 330 327 322 326 329 330 330 328 323
304 303 303 304 304 304 307 305 304 303 305 303 301 302 302 302 301 301 300 300 299 300 301 308 316 320 322 324 328 329 331 330 326 327 329 330 328 325 322 327 328 329 329 322
304 305 305 305 305 304 306 305 304 303 303 303 303 302 301 301 301 301 301 300 300 301 301 312 315 319 322 324 326 328 330 331 330 329 330 329 328 326 326 326 329 329 330 323
304 303 303 304 304 305 303 303 303 302 303 304 303 303 302 302 302 302 302 300 301 302 309 311 315 318 321 323 325 326 327 330 329 329 329 329 328 328 326 326 326 329 330 324
304 305 303 303 306 304 303 303 304 304 304 303 299 302 302 303 305 304 304 301 304 308 310 311 313 317 318 321 322 325 326 328 327 328 328 327 326 328 328 326 326 325 329 325
302 303 305 305 305 306 304 303 304 303 302 302 299 301 302 303 302 302 303 306 306 308 308 308 310 315 315 319 321 323 324 324 324 323 324 326 325 325 325 324 327 326 327 328
301 303 303 303 305 305 305 305 303 305 304 306 305 306 304 301 302 305 304 302 301 302 304 305 308 311 313 315 320 321 322 322 321 321 324 324 324 324 324 323 323 327 325 328
299 302 306 305 304 303 304 304 305 306 306 310 308 306 302 302 302 302 301 299 298 298 301 303 303 307 309 313 316 317 320 321 323 321 321 321 322 322 323 323 324 325 327 327
300 301 305 306 304 303 304 305 306 307 305 312 309 304 300 301 300 300 299 298 298 298 299 299 300 304 307 312 313 314 316 319 319 318 319 320 319 319 320 321 323 322 325 325
299 301 305 304 303 300 301 305 306 308 308 306 304 302 299 299 299 298 297 296 296 298 298 298 298 301 305 308 310 311 312 313 313 313 314 316 316 314 315 318 319 320 322 321
300 303 303 304 302 301 303 303 306 304 304 303 304 301 298 298 297 297 297 296 296 297 297 298 300 300 304 306 308 309 309 309 308 309 310 311 311 312 313 312 313 314 315 316
301 302 302 302 304 302 301 302 302 302 302 300 300 299 298 298 298 297 295 294 294 295 295 297 299 300 302 304 306 307 306 307 308 308 310 310 310 311 311 312 312 312 313 313
296 302 301 301 302 301 300 300 301 302 301 300 299 297 297 297 297 296 294 293 293 294 294 295 297 299 300 303 304 305 306 307 308 307 308 308 308 309 309 310 310 309 310 310
294 301 297 301 298 301 300 298 300 299 300 300 299 298 296 294 294 294 293 293 292 292 293 295 296 298 299 300 301 302 303 304 305 305 306 305 305 306 306 306 307 307 308 308
294 293 295 305 296 301 302 297 297 299 298 299 298 297 295 294 293 292 293 292 291 291 292 295 296 296 297 298 299 300 300 301 302 303 302 303 304 304 305 305 305 305 306 306
292 290 291 303 299 305 301 295 295 298 296 296 299 298 296 294 291 291 291 292 291 292 294 295 296 297 297 297 298 298 299 300 300 300 300 300 300 301 302 303 304 303 301 302
290 291 296 305 301 301 300 293 292 294 297 295 296 297 297 296 296 292 291 292 292 293 294 295 295 296 296 297 297 298 299 299 299 298 298 297 297 298 298 298 299 299 299 299
288 288 297 298 303 305 299 291 289 291 300 293 295 295 296 298 299 294 292 294 294 294 294 294 294 295 295 294 295 296 296 297 297 297 296 296 296 296 297 296 296 296 296 297
289 288 292 295 300 299 292 290 289 301 298 292 294 295 296 294 294 292 292 293 294 295 295 295 295 296 295 295 295 296 296 296 296 296 296 296 296 296 296 296 296 296 295 294
290 292 292 286 297 297 289 293 296 292 292 293 294 294 293 293 292 293 293 293 294 294 295 295 296 297 297 297 297 297 297 296 296 296 296 296 296 296 296 295 295 294 293 292
295 290 293 292 295 288 290 290 290 291 293 295 293 292 291 291 291 290 290 290 290 291 291 292 292 293 295 296 297 297 297 296 296 296 296 296 296 295 295 295 295 295 293 292
287 283 289 290 289 289 291 291 291 292 294 292 291 291 291 292 291 291 291 291 291 291 291 290 290 290 291 291 291 292 294 296 296 296 296 296 295 295 295 295 295 294 293 293
288 285 287 290 288 288 291 292 292 292 292 291 291 291 291 291 291 291 291 291 291 291 291 291 291 291 291 291 291 291 290 290 291 291 292 293 295 295 295 295 294 294 294 294
285 290 292 295 290 291 291 292 292 291 291 291 291 292 292 291 291 291 291 291 291 291 291 291 291 291 291 291 291 291 291 291 290 290 290 290 290 290 290 291 292 294 295 294
Wind_Speed
9 5 13 21 22 23 19 20 25 20 8 11 19 23 25 25 24 24 25 24 25 28 23 25 25 25 25 23 26 29 29 26 26 40 44 39 38 39 42 40 39 34 31 29
6 14 23 21 20 22 22 24 28 26 18 14 21 25 24 22 23 28 27 26 23 24 23 19 23 27 25 23 27 30 31 29 25 36 43 41 36 37 42 43 42 37 34 32
11 20 13 16 19 20 21 25 24 24 12 17 19 21 23 25 25 31 32 30 27 27 24 22 21 24 22 22 26 30 35 31 29 32 32 37 32 33 38 46 43 39 37 33
12 17 13 15 23 21 22 24 26 23 12 11 14 10 16 19 20 22 30 30 30 28 26 21 22 22 21 21 26 33 32 29 31 40 39 41 42 43 44 47 43 41 41 36
12 16 17 17 25 18 19 12 12 17 14 18 22 8 17 19 18 21 22 27 29 29 25 22 24 21 21 21 24 29 30 35 38 34 42 42 42 40 39 42 44 44 42 39
22 21 15 16 15 12 4 2 5 9 10 12 18 17 17 17 22 23 23 27 30 23 20 23 23 18 18 18 20 26 28 27 23 37 42 42 35 39 42 42 40 44 43 40
17 3 4 6 5 3 4 6 3 4 6 8 2 11 17 10 8 9 13 26 22 23 25 23 20 18 15 15 16 21 23 22 19 27 23 29 33 22 36 33 40 42 44 43
10 10 1 2 6 4 10 7 4 6 5 4 4 7 3 12 14 20 20 22 25 27 23 20 19 19 16 15 16 15 15 14 13 15 13 18 20 24 24 28 34 42 44 43
7 7 4 12 8 3 5 9 5 5 5 6 6 2 4 16 8 10 21 21 23 23 23 20 18 18 17 17 18 18 18 14 13 14 15 17 24 27 30 31 29 50 42 38
5 10 2 5 4 3 6 2 4 5 4 5 4 3 11 15 10 12 16 18 24 22 24 22 20 21 20 19 18 16 15 12 8 9 9 11 16 21 23 25 34 35 44 33
8 5 8 7 6 12 7 5 5 4 6 4 3 4 13 12 10 10 11 20 24 25 27 24 24 25 25 21 19 16 14 11 11 9 8 6 7 7 11 12 15 12 17 13
3 5 7 4 4 14 7 10 4 4 2 4 3 4 14 11 11 12 19 22 24 30 27 25 26 29 32 28 24 21 18 14 12 12 13 13 10 10 10 13 12 11 12 11
8 5 7 7 3 16 7 19 5 7 3 15 5 4 10 14 15 21 19 22 27 32 25 27 29 31 33 32 29 29 26 23 20 19 21 23 22 23 23 22 23 22 19 17
4 4 7 8 8 11 17 26 25 11 9 13 11 11 14 16 14 14 21 26 28 26 27 28 28 29 29 30 29 26 24 22 19 18 18 17 17 18 19 19 16 17 16 15
5 3 2 5 13 19 23 23 24 23 15 10 11 16 14 13 13 17 22 25 26 29 29 29 28 27 27 25 23 20 17 15 13 11 13 15 15 15 14 14 13 13 12 11
10 3 2 1 8 10 21 24 21 20 13 13 12 16 12 19 23 25 22 21 21 26 26 28 29 27 27 27 25 22 21 19 15 13 14 14 14 14 15 15 14 12 13 13
8 6 6 2 8 8 12 15 16 12 15 9 13 8 10 16 20 21 18 21 20 22 24 28 29 27 27 26 24 23 23 21 19 19 18 17 14 13 14 14 14 14 13 14
6 4 3 3 5 7 3 9 5 7 18 16 10 9 10 15 22 26 25 22 22 23 26 27 26 26 26 24 23 22 21 20 19 20 19 18 15 17 17 15 14 13 14 16
3 2 3 3 3 1 2 5 6 7 11 14 12 12 12 5 15 25 23 22 22 23 24 25 24 23 22 22 21 20 20 19 18 18 18 16 14 15 15 15 15 13 11 12
1 4 0 2 4 5 2 2 5 4 9 19 15 10 9 6 9 5 15 20 20 22 22 21 21 21 21 21 19 18 19 18 18 17 16 14 14 13 13 13 13 12 11 11
5 4 5 3 3 3 3 14 0 3 3 11 11 12 15 8 8 10 13 18 19 20 20 19 19 20 21 20 17 18 17 18 17 15 14 13 12 11 11 11 10 10 9 8
2 2 2 1 2 4 11 5 4 1 3 4 10 13 17 17 15 15 17 18 18 18 18 18 18 19 19 18 17 17 16 16 14 13 12 11 10 9 9 8 8 7 6 5
1 1 1 2 2 3 7 5 4 4 5 6 10 12 15 17 16 15 17 17 17 17 17 17 17 16 16 16 14 12 13 13 12 11 10 8 8 7 7 7 6 5 4 4
2 3 2 1 2 2 0 3 4 7 11 11 10 12 13 15 14 15 15 16 16 17 17 18 17 17 16 14 12 10 9 8 7 7 7 7 6 6 6 5 4 3 2 3
1 5 2 3 4 2 5 6 7 11 11 10 11 12 11 12 13 12 12 12 12 13 13 12 12 12 11 10 10 9 8 8 6 6 6 7 7 8 8 7 6 6 5 4
10 5 3 2 5 2 7 12 11 11 10 9 9 9 8 9 8 10 9 9 8 8 8 8 8 9 10 10 9 9 8 7 7 8 8 8 8 9 9 10 10 11 11 10
Wind_Direction
204 212 228 231 223 239 272 268 269 271 279 252 242 254 263 262 262 260 257 256 253 259 260 256 251 259 253 256 237 235 219 222 225 221 214 216 221 217 219 222 226 223 226 230
232 229 241 253 254 248 249 257 259 269 254 236 258 258 261 263 258 259 260 250 249 252 253 251 239 248 243 246 230 234 226 220 218 230 222 222 223 222 220 224 226 224 226 229
255 261 272 254 255 251 237 239 256 254 279 237 265 268 263 258 249 253 252 249 247 247 252 244 239 236 234 236 225 231 227 222 227 231 231 228 228 227 231 231 226 223 227 230
254 265 263 257 253 245 255 238 250 262 256 250 201 269 262 251 243 241 248 239 234 238 240 241 234 227 223 220 221 219 222 220 227 245 234 228 217 216 223 228 226 227 228 228
263 284 274 256 261 270 268 287 235 240 251 264 248 254 258 250 255 247 245 236 226 229 229 217 225 216 217 212 220 215 215 220 219 221 228 225 224 221 221 229 227 227 228 228
258 268 277 265 275 257 294 128 202 237 246 247 249 220 263 245 243 254 243 224 217 211 194 208 209 197 198 206 211 217 230 211 215 204 219 218 216 229 228 226 234 232 229 228
314 258 281 249 259 172 163 160 210 224 218 254 312 208 253 323 238 241 263 213 186 170 188 189 184 178 178 183 189 212 220 222 219 210 208 216 231 225 209 234 237 239 230 230
338 319 205 167 233 252 192 192 195 239 224 287 145 238 231 314 272 259 256 165 150 160 170 170 166 163 171 173 168 169 194 193 206 224 217 225 238 251 238 237 241 236 245 238
307 270 252 289 278 214 169 218 204 275 244 272 200 307 212 349 314 157 120 133 115 136 152 146 142 150 154 158 156 161 175 186 210 226 234 243 251 256 249 256 261 227 236 244
282 288 244 306 299 271 258 114 193 212 265 234 93 54 336 339 6 114 108 107 107 121 130 126 128 135 134 138 140 144 155 165 181 236 250 253 248 249 252 257 245 238 232 228
277 247 307 324 30 346 319 269 247 233 236 313 62 23 343 8 26 74 95 99 102 105 113 115 119 121 119 122 128 129 134 141 169 181 179 188 197 208 217 209 206 186 199 213
273 306 306 307 346 354 293 292 235 271 76 48 81 42 353 21 35 65 78 85 90 105 106 112 115 114 110 110 109 108 105 112 119 127 132 132 128 119 142 162 166 181 203 188
326 347 328 345 333 2 355 21 46 46 23 25 42 8 355 25 35 41 68 76 82 95 102 104 102 101 101 101 101 99 99 100 101 102 107 110 112 108 104 102 107 109 112 126
339 26 26 15 350 353 21 26 34 50 59 64 56 52 20 28 36 43 54 66 81 91 92 93 90 92 98 101 102 105 105 107 103 105 103 102 104 105 107 107 107 107 107 113
36 351 358 63 41 34 32 24 28 44 35 53 46 51 27 31 43 48 62 67 71 79 83 86 87 88 91 97 99 101 100 102 102 98 99 98 98 96 97 101 103 101 110 119
359 307 332 237 341 28 33 20 27 33 25 48 51 52 18 35 45 46 51 61 64 71 75 80 84 87 88 90 92 95 93 90 94 95 94 91 92 99 102 97 96 103 106 107
349 336 355 15 354 339 30 359 359 23 25 18 41 33 30 42 41 30 44 56 61 69 73 76 78 83 85 86 91 92 95 96 100 97 94 87 85 94 93 89 86 92 100 103
309 333 339 329 325 32 45 351 336 9 31 12 28 34 53 63 55 44 50 56 56 62 69 75 77 80 82 85 87 88 90 93 93 94 95 95 97 93 91 95 98 98 100 106
225 292 38 54 34 122 72 20 6 357 29 18 7 7 8 66 53 37 43 56 63 67 71 73 76 79 81 82 85 88 88 88 86 84 83 83 84 90 95 100 103 104 102 102
303 17 128 27 60 21 34 349 332 299 38 6 10 30 31 355 73 40 47 62 66 69 72 74 75 78 80 79 79 82 83 84 84 83 82 82 83 84 87 87 90 92 96 99
339 10 48 56 75 289 329 323 287 63 7 355 28 52 77 78 82 88 81 81 78 78 76 75 76 76 76 77 76 78 80 80 77 77 76 75 76 77 81 86 91 87 84 87
329 357 44 170 68 2 0 314 68 56 13 68 78 79 89 95 98 94 86 82 80 80 81 81 80 78 75 73 71 72 72 72 73 72 70 71 72 72 73 74 77 80 77 77
23 244 325 222 101 315 349 36 69 99 100 89 92 93 96 99 96 93 89 88 86 83 80 79 75 74 73 70 67 62 61 58 58 57 54 54 54 52 51 50 54 58 58 55
207 175 259 288 181 217 50 74 81 113 122 121 115 111 107 101 91 84 77 75 74 72 70 67 64 62 61 59 56 52 48 41 31 26 18 19 21 18 24 26 25 35 48 40
33 148 189 269 256 225 203 163 131 128 125 124 127 126 121 117 109 97 93 88 81 73 67 61 53 48 43 36 29 24 18 13 5 357 345 332 321 317 317 320 319 320 318 323
189 179 181 201 177 138 158 164 155 151 145 137 143 137 130 128 112 100 90 81 71 62 55 43 29 17 4 354 347 341 333 323 319 316 312 304 300 298 302 302 297 290 288 286